Regional Weather Roundup
Issued by NWS Northern Indiana

Home | Current Version | Previous Version | Text Only | Print | Product List | Glossary Off
Versions: 1 2 3 4 5 6 7 8 9 10 11 12 13 14 15 16 17 18 19 20 21 22 23 24 25 26 27 28 29 30 31 32 33 34 35 36 37 38 39 40 41 42 43 44 45 46 47 48 49 50

000
ASUS43 KIWX 061800
RWRIWX

KIWX WEATHER ROUNDUP
NATIONAL WEATHER SERVICE NORTHERN INDIANA
100 PM EST FRI MAR 06 2015

NOTE: "FAIR" INDICATES FEW OR NO CLOUDS BELOW 12,000 FEET WITH NO
SIGNIFICANT WEATHER AND/OR OBSTRUCTIONS TO VISIBILITY.

* THESE STATIONS ARE NOT UNDER NWS QUALITY CONTROL. THEY ALSO MAY NOT
  REPORT WEATHER SUCH AS PRECIPITATION OR FOG.

INZ001>027-061900-
NORTHERN INDIANA

CITY           SKY/WX    TMP DP  RH WIND       PRES   REMARKS
GARY*          MOSUNNY   21   3  45 MISG      30.38F
SOUTH BEND     FAIR      19   5  54 S13       30.38F WCI   6
6HR MIN TEMP:   1; 6HR MAX TEMP:  19;

ELKHART*       FAIR      18   0  45 SW12G18   30.40  WCI   5
GOSHEN         FAIR      17   3  54 S15       30.39F WCI   2
6HR MIN TEMP:  -1; 6HR MAX TEMP:  17;

ANGOLA*        SUNNY     18   0  45 SW15      30.40F WCI   3
FORT WAYNE     PTSUNNY   19   9  65 SW17G23   30.44F WCI   4
6HR MIN TEMP:  -3; 6HR MAX TEMP:  19;

PERU/GRISSOM   FAIR      20   9  63 SW16      30.41F WCI   6
6HR MIN TEMP:  -3; 6HR MAX TEMP:  20;


$$
INZ028>050-061900-
CENTRAL INDIANA

CITY           SKY/WX    TMP DP  RH WIND       PRES   REMARKS
LAFAYETTE      FAIR      20   5  52 SW14      30.44F WCI   7
6HR MIN TEMP:  -4; 6HR MAX TEMP:  20;

KOKOMO*          N/A    N/A N/A N/A MISG        N/A
MUNCIE*        FAIR      21   8  57 SW14G23   30.44F WCI   8
6HR MIN TEMP:   3; 6HR MAX TEMP:  21;

INDIANAPOLIS   FAIR      23   8  52 S13       30.44F WCI  11
6HR MIN TEMP:   2; 6HR MAX TEMP:  23;


$$
MIZ043>046-050>051-056>058-064>065-071>073-077>080-061900-
SOUTHWEST LOWER MICHIGAN

CITY           SKY/WX    TMP DP  RH WIND       PRES   REMARKS
BATTLE CREEK   FAIR      17   4  56 S17       30.35F WCI   1
6HR MIN TEMP:   0; 6HR MAX TEMP:  17;

BENTON HARBOR  FAIR      17   3  54 S15G23    30.36F WCI   2
6HR MIN TEMP:   2; 6HR MAX TEMP:  17;

COLDWATER*     FAIR      17   0  47 S10G21    30.37F WCI   5
6HR MIN TEMP:  -1; 6HR MAX TEMP:  17;

HILLSDALE*     FAIR      18   1  47 SW13      30.36F WCI   4
6HR MIN TEMP:   2; 6HR MAX TEMP:  18;

HOLLAND        FAIR      20   6  55 S15       30.34F WCI   6
6HR MIN TEMP:   7; 6HR MAX TEMP:  20;

GRAND RAPIDS   PTSUNNY   18   3  52 S15       30.33F WCI   4
6HR MIN TEMP:   5; 6HR MAX TEMP:  18;

KALAMAZOO      FAIR      18   4  54 S18       30.36F WCI   2
6HR MIN TEMP:  -2; 6HR MAX TEMP:  18;

STURGIS*       FAIR      16   3  57 S17       30.38F WCI   0
THREE RIVERS*  FAIR      17   4  57 S15       30.39F WCI   3
6HR MIN TEMP:  -2; 6HR MAX TEMP:  17;


$$
OHZ001>008-015>018-024>025-061900-
NORTHWEST OHIO

CITY           SKY/WX    TMP DP  RH WIND       PRES   REMARKS
DEFIANCE       FAIR      18   7  62 S14       30.44F WCI   4
6HR MIN TEMP:   0; 6HR MAX TEMP:  19;

FINDLAY        FAIR      21   8  57 SW16      30.45F WCI   7
6HR MIN TEMP:   2; 6HR MAX TEMP:  21;

TOLEDO EXPRESS FAIR      18   4  54 SW15G24   30.44F WCI   4
6HR MIN TEMP:  -5; 6HR MAX TEMP:  18;

TOLEDO METCALF FAIR      19   7  59 SW18G25   30.46F WCI   4
6HR MIN TEMP:   3; 6HR MAX TEMP:  19;

LIMA           FAIR      21   9  59 SW15      30.45F WCI   8
6HR MIN TEMP:   4; 6HR MAX TEMP:  21;


$$
AND FOR LAKE MICHIGAN COASTAL AND OPEN LAKE BUOY OBSERVATIONS

STATION/POSITION TEMP    WIND        PRES    VSBY  WAVE
                 AIR SEA DIR/SP/G                  HT/PER
                 (F)     (DEG/KT/KT) (MB)    (MI)  (FT/S)
CALUMET HARBOR    18     180/ 14/ 19 1026.8F
MICHIGAN CITY     15     170/ 17/ 23   N/A
SAINT JOSEPH      17     170/  7/ 13 1029.1F

$$
&&



USA.gov is the U.S. government's official web portal to all federal, state and local government web resources and services.